Flag for U.S.A. Weather past 2 weeks in Moreno Valley, California, U.S.A.

Now
50 °F

Clear.


Feels Like: 47 °F
Forecast: 37 / 71 °F
Wind: 8 mph from Northeast

Location: Riverside / March Air Force Base

Current Time: Mar 5, 2015 at 7:02:11 AM

Latest Report: Mar 5, 2015 at 5:58 AM


Visibility: 10 mi

Pressure: 30.22 "Hg

Humidity: 28%

Dew point: 19 °F

Location of Moreno ValleyLocation

Historic Weather in Moreno Valley — Graph

°F

Moreno Valley temperature yesterday

Maximum temperature yesterday: 67 °F (at 1:58 PM)
Minimum temperature yesterday: 35 °F (at 4:58 AM)
Average temperature yesterday: 50 °F

Past Weeks' High & Low Weather Summary

 TemperatureHumidityPressure
High80 °F (Feb 18, 12:58 PM)100% (Feb 18, 5:58 AM)30.23 "Hg (Feb 18, 5:58 AM)
Low32 °F (Mar 3, 3:58 AM)18% (Mar 4, 2:58 PM)29.74 "Hg (Feb 27, 7:58 PM)
Average52 °F75%29.97 "Hg
* Reported Feb 18 5:58 AM — Mar 5 5:58 AM, Moreno Valley, Weather by CustomWeather, © 2015

Note: Actual official high and low records may vary slightly from our data, if they occured in-between our weather recording intervals... More about our weather records

Advertising

Moreno Valley weather history for previous 24 hours

 ConditionsComfort  
Time TempWeatherWind HumidityBarometerVisibility
5:58 AM
Thu, Mar 5
50 °FClear.8 mph28%30.22 "Hg10 mi
4:58 AM39 °FClear.2 mph57%30.20 "Hg9 mi
3:58 AM43 °FClear.5 mph52%30.19 "Hg10 mi
2:58 AM34 °FClear.3 mph73%30.17 "Hg10 mi
1:58 AM38 °FClear.2 mph60%30.17 "Hg10 mi
12:58 AM44 °FClear.7 mph39%30.17 "Hg10 mi
11:58 PM
Wed, Mar 4
40 °FClear.3 mph57%30.16 "Hg10 mi
10:58 PM47 °FClear.No wind44%30.16 "Hg10 mi
9:58 PM42 °FClear.3 mph53%30.16 "Hg10 mi
8:58 PM43 °FClear.2 mph56%30.15 "Hg10 mi
7:58 PM47 °FClear.5 mph43%30.13 "Hg10 mi
6:58 PM55 °FClear.7 mph24%30.12 "Hg10 mi
5:58 PM57 °FClear.9 mph26%30.10 "Hg10 mi
4:58 PM66 °FSunny.7 mph18%30.07 "Hg10 mi
3:58 PM67 °FSunny.3 mph18%30.06 "Hg10 mi
2:58 PM67 °FSunny.5 mph18%30.06 "Hg10 mi
1:58 PM67 °FSunny.6 mph20%30.05 "Hg10 mi
12:58 PM65 °FSunny.2 mph20%30.06 "Hg10 mi
11:58 AM64 °FSunny.6 mph24%30.07 "Hg10 mi
10:58 AM61 °FSunny.1 mph25%30.08 "Hg10 mi
9:58 AM58 °FSunny.1 mph34%30.09 "Hg10 mi
8:58 AM53 °FSunny.No wind68%30.08 "Hg10 mi
7:58 AM44 °FSunny.No wind98%30.06 "Hg10 mi
Weather by CustomWeather, © 2015

See weather overviewHow to use our weather pages